Home > Weather > Langfang > Past weeks

Flag for China Weather for the Past 2 Weeks in Langfang, Hebei, China

Now
55 °F

Light rain. More clouds than sun.


Feels Like: 54 °F
Forecast: 53 / 77 °F
Wind: 6 mph from North

Location: Beijing Airport

Current Time: May 2, 2016 at 11:59:15 AM

Latest Report: May 2, 2016 at 11:00 AM


Visibility: N/A

Pressure: 29.86 "Hg

Humidity: 88%

Dew Point: 52 °F

Location of LangfangLocation

Historic Weather in Langfang — Graph

°F

Langfang Temperature Yesterday

Maximum temperature yesterday: 84 °F (at 2:30 PM)
Minimum temperature yesterday: 59 °F (at 5:00 AM)
Average temperature yesterday: 74 °F

High & Low Weather Summary for the Past Weeks

 TemperatureHumidityPressure
High90 °F (Apr 21, 4:00 PM)100% (Apr 30, 5:00 AM)30.09 "Hg (Apr 30, 5:00 AM)
Low41 °F (Apr 24, 5:00 AM)8% (Apr 22, 4:30 PM)29.47 "Hg (Apr 21, 3:30 PM)
Average64 °F46%29.83 "Hg
* Reported Apr 17 10:00 AM — May 2 10:00 AM, Langfang, Weather by CustomWeather, © 2016

Note: Actual official high and low records may vary slightly from our data, if they occured in-between our weather recording intervals... More about our weather records

Advertising

Langfang Weather History for the Previous 24 Hours

Scroll right to see more
 ConditionsComfort  
Time TempWeatherWind HumidityBarometerVisibility
10:00 AM
Mon, May 2
55 °FLight rain. Scattered clouds.8 mph88%29.86 "HgN/A
9:30 AM55 °FLight rain. Clear.8 mph82%29.86 "HgN/A
9:00 AM55 °FSprinkles. Clear.10 mph82%29.83 "HgN/A
8:30 AM57 °FSprinkles. Passing clouds.15 mph77%29.83 "HgN/A
7:30 AM63 °FSprinkles. Passing clouds.22 mph49%29.83 "HgN/A
7:00 AM64 °FSunny.22 mph43%29.77 "Hg10 mi
6:30 AM66 °FSunny.20 mph40%29.77 "Hg10 mi
6:00 AM66 °FSunny.20 mph40%29.74 "Hg10 mi
5:30 AM68 °FSunny.22 mph38%29.74 "Hg10 mi
5:00 AM68 °FClear.20 mph38%29.71 "Hg10 mi
4:30 AM70 °FClear.17 mph33%29.68 "Hg10 mi
4:00 AM72 °FClear.17 mph31%29.68 "Hg10 mi
3:30 AM72 °FClear.17 mph38%29.65 "Hg10 mi
3:00 AM72 °FClear.13 mph47%29.65 "Hg10 mi
2:30 AM72 °FClear.10 mph53%29.65 "Hg10 mi
2:00 AM73 °FClear.10 mph47%29.65 "Hg10 mi
1:30 AM73 °FClear.13 mph47%29.62 "Hg10 mi
1:00 AM73 °FClear.10 mph53%29.62 "Hg4 mi
12:30 AM75 °FHaze.10 mph61%29.62 "Hg2 mi
12:00 AM73 °FHaze.6 mph69%29.62 "Hg2 mi
11:30 PM
Sun, May 1
73 °FHaze.3 mph69%29.59 "Hg2 mi
11:00 PM79 °FHaze.3 mph51%29.59 "Hg2 mi
10:30 PM77 °FHaze.1 mph61%29.56 "Hg2 mi
10:00 PM79 °FHaze.1 mph58%29.56 "Hg2 mi
9:30 PM81 °FHaze.6 mph54%29.59 "Hg2 mi
9:00 PM81 °FHaze.3 mph58%29.59 "Hg2 mi
8:30 PM79 °FHaze.6 mph61%29.56 "Hg2 mi
8:00 PM79 °FHaze.1 mph61%29.53 "Hg2 mi
7:30 PM79 °FHaze.1 mph61%29.53 "Hg2 mi
7:00 PM77 °FHaze.6 mph65%29.50 "Hg2 mi
6:30 PM79 °FHaze.3 mph61%29.47 "Hg2 mi
6:00 PM81 °FHaze.3 mph58%29.47 "Hg2 mi
5:30 PM81 °FHaze.3 mph58%29.47 "Hg2 mi
5:00 PM82 °FHaze.6 mph55%29.47 "Hg2 mi
4:30 PM84 °FHaze.3 mph51%29.47 "Hg2 mi
4:00 PM84 °FHaze.1 mph51%29.47 "Hg2 mi
3:30 PM84 °FHaze.3 mph51%29.47 "Hg2 mi
3:00 PM84 °FHaze.3 mph51%29.47 "Hg2 mi
2:30 PM84 °FHaze.3 mph48%29.50 "Hg2 mi
2:00 PM82 °FHaze.3 mph51%29.50 "Hg2 mi
1:30 PM82 °FHaze.6 mph51%29.53 "Hg2 mi
12:30 PM81 °FHaze.3 mph51%29.53 "Hg2 mi
12:00 PM81 °FHaze.1 mph48%29.56 "Hg2 mi
11:30 AM77 °FHaze.3 mph54%29.56 "Hg2 mi
11:00 AM77 °FHaze.3 mph54%29.56 "Hg2 mi
Weather by CustomWeather, © 2016

See weather overviewHow to use our weather pages